KISSLEGG Weather Reports


time (UTC)temp
F
wind
direction
speed
knots
gust
knots
rain 1hr
in
rain 24hr
in
rain mn
in
humidity
%
barometer
mb
20260504130215 74 142 0.0 0.0 0.00 0.00 0.00 39 1010.8
20260504120210 69 42 0.0 0.0 0.00 0.00 0.00 44 1011.3
20260504110210 69 42 0.0 0.0 0.00 0.00 0.00 47 1011.6
20260504100212 69 62 0.0 0.0 0.00 0.00 0.00 50 1012.2
20260504080210 62 360 0.0 0.0 0.00 0.00 0.00 60 1013.3
20260504070212 58 38 0.0 0.0 0.00 0.00 0.00 69 1013.3
20260504060212 56 51 0.0 0.0 0.00 0.00 0.00 67 1013.3
20260504050210 53 100 0.0 0.0 0.00 0.00 0.00 73 1013.2
20260504043211 52 100 0.0 0.0 0.00 0.00 0.00 78 1013.4
20260504040211 52 100 0.0 0.0 0.00 0.00 0.00 79 1013.3
20260504033211 52 360 0.0 0.0 0.00 0.00 0.00 78 1013.7
20260504030212 52 360 0.0 0.0 0.00 0.00 0.00 78 1013.9
20260504023211 53 360 0.0 0.0 0.00 0.00 0.00 77 1013.9
20260504020212 53 360 0.0 0.0 0.00 0.00 0.00 77 1013.7
20260504013211 53 360 0.0 0.0 0.00 0.00 0.00 76 1013.7
20260504010211 53 360 0.0 0.0 0.00 0.00 0.00 77 1013.9
20260504003210 53 360 0.0 0.0 0.00 0.00 0.00 77 1014.2
20260504000208 53 360 0.0 0.0 0.00 0.00 0.00 74 1014.3
20260503233209 53 360 0.0 0.0 0.00 0.00 0.00 72 1014.4
20260503230209 54 360 0.0 0.0 0.00 0.00 0.00 72 1014.4
20260503223210 54 360 0.0 0.0 0.00 0.00 0.00 72 1014.4
20260503220212 54 360 0.0 0.0 0.00 0.00 0.00 70 1014.1
20260503213210 55 360 0.0 0.0 0.00 0.00 0.00 68 1013.9
20260503210211 56 360 0.0 0.0 0.00 0.00 0.00 67 1013.7
20260503203209 57 360 0.0 0.0 0.00 0.00 0.00 64 1013.4
20260503200211 58 360 0.0 0.0 0.00 0.00 0.00 61 1013.1
20260503193210 59 360 0.0 0.0 0.00 0.00 0.00 60 1012.8
20260503190210 60 286 0.0 0.0 0.00 0.00 0.00 57 1012.1
20260503183209 62 213 0.0 0.0 0.00 0.00 0.00 55 1012.1
20260503180210 68 360 0.0 0.0 0.00 0.00 0.00 49 1011.3
20260503173209 69 360 0.0 0.0 0.00 0.00 0.00 47 1011.2
20260503170211 69 360 0.0 0.0 0.00 0.00 0.00 46 1011.0
20260503160211 74 187 0.0 0.0 0.00 0.00 0.00 42 1011.0
20260503150209 75 360 0.0 0.0 0.00 0.00 0.00 36 1011.1
20260503140210 75 182 0.0 0.0 0.00 0.00 0.00 31 1011.3